Retour au catalogue

STARLINK-35424

ActifCommunicationsVLEO
NORAD 66460·PAYLOAD·🇺🇸 United States

Lancé Nov 15, 2025 depuis Cape Canaveral Space Force Station

Loading…

Prochains Passages (prochaines 24 heures)

TLE

FraisSource: CelesTrak SupGP

Époque: Sep 14, 2026, 23:21 UTC

1 66460C 25262E   26257.97340278  .00019827  00000+0  71834-3 0  2570
2 66460  43.0003 307.0632 0001514 269.6385 192.5173 15.27559539    15

Suivez STARLINK-35424 en temps réel avec AllMySat

Download on the App Store